• In Netherlands
  • List of Countries
  • For 7 days
  • Water Temperature
  • Satellite Maps
  • Weather Map
  • Weather Widgets
  • user-avatar
    Login

    Hourly Weather Rawson

    Today, 19 January, Friday

    Time Temperature Precipitation Wind Pressure Humidity
    00:00 +27°C° 0 mm 7 mps 758 mmHg 30%
    01:00 +26°C° 0 mm 7 mps 758 mmHg 33%
    02:00 +24°C° 0 mm 6 mps 758 mmHg 37%
    03:00 +24°C° 0 mm 6 mps 758 mmHg 39%
    04:00 +23°C° 0 mm 5 mps 759 mmHg 41%
    05:00 +23°C° 0 mm 5 mps 759 mmHg 43%
    06:00 +25°C° 0 mm 5 mps 759 mmHg 41%
    07:00 +25°C° 0 mm 4 mps 759 mmHg 39%
    08:00 +26°C° 0 mm 4 mps 759 mmHg 37%
    09:00 +27°C° 0 mm 3 mps 759 mmHg 34%
    10:00 +28°C° 0 mm 2 mps 759 mmHg 31%
    11:00 +29°C° 0 mm 2 mps 759 mmHg 29%
    12:00 +31°C° 0 mm 2 mps 759 mmHg 26%
    13:00 +33°C° 0 mm 3 mps 759 mmHg 24%
    14:00 +34°C° 0 mm 4 mps 758 mmHg 22%
    15:00 +34°C° 0 mm 5 mps 758 mmHg 21%
    16:00 +35°C° 0 mm 5 mps 757 mmHg 20%
    17:00 +36°C° 0 mm 6 mps 757 mmHg 19%
    18:00 +35°C° 0 mm 6 mps 756 mmHg 21%
    19:00 +34°C° 0 mm 7 mps 756 mmHg 23%
    20:00 +33°C° 0 mm 8 mps 756 mmHg 24%
    21:00 +32°C° 0 mm 8 mps 756 mmHg 27%
    22:00 +29°C° 0 mm 9 mps 756 mmHg 30%
    23:00 +28°C° 0 mm 9 mps 756 mmHg 33%

    Tomorrow, 20 January, Saturday

    Time Temperature Precipitation Wind Pressure Humidity
    00:00 +28°C° 0 mm 9 mps 756 mmHg 35%
    01:00 +27°C° 0 mm 9 mps 756 mmHg 37%
    02:00 +27°C° 0 mm 9 mps 756 mmHg 38%
    03:00 +27°C° 0 mm 8 mps 756 mmHg 39%
    04:00 +27°C° 0 mm 7 mps 756 mmHg 39%
    05:00 +27°C° 0 mm 6 mps 756 mmHg 39%
    06:00 +28°C° 0 mm 5 mps 756 mmHg 37%
    07:00 +29°C° 0 mm 5 mps 757 mmHg 34%
    08:00 +29°C° 0 mm 4 mps 757 mmHg 32%
    09:00 +30°C° 0 mm 5 mps 757 mmHg 31%
    10:00 +32°C° 0 mm 6 mps 757 mmHg 30%
    11:00 +33°C° 0 mm 7 mps 757 mmHg 28%
    12:00 +32°C° 0 mm 8 mps 757 mmHg 30%
    13:00 +32°C° 0 mm 8 mps 757 mmHg 32%
    14:00 +31°C° 0 mm 8 mps 757 mmHg 34%
    15:00 +29°C° 0 mm 8 mps 757 mmHg 40%
    16:00 +27°C° 0 mm 8 mps 757 mmHg 46%
    17:00 +26°C° 0 mm 8 mps 757 mmHg 51%
    18:00 +24°C° 0 mm 8 mps 757 mmHg 58%
    19:00 +22°C° 0 mm 7 mps 757 mmHg 65%
    20:00 +21°C° 0 mm 7 mps 757 mmHg 71%
    21:00 +21°C° 0.3 mm 6 mps 757 mmHg 74%
    22:00 +20°C° 0.3 mm 5 mps 757 mmHg 76%
    23:00 +20°C° 0.3 mm 5 mps 757 mmHg 78%

    Day after tomorrow, 21 January, Sunday

    Time Temperature Precipitation Wind Pressure Humidity
    00:00 +20°C° 0.4 mm 4 mps 756 mmHg 77%
    01:00 +21°C° 0.4 mm 4 mps 756 mmHg 76%
    02:00 +21°C° 0.4 mm 3 mps 756 mmHg 75%
    03:00 +21°C° 0.1 mm 3 mps 755 mmHg 73%
    04:00 +22°C° 0.1 mm 3 mps 755 mmHg 71%
    05:00 +23°C° 0.1 mm 2 mps 754 mmHg 69%
    06:00 +24°C° 0 mm 2 mps 754 mmHg 62%
    07:00 +26°C° 0 mm 3 mps 754 mmHg 56%
    08:00 +27°C° 0 mm 3 mps 754 mmHg 50%
    09:00 +29°C° 0 mm 4 mps 753 mmHg 44%
    10:00 +30°C° 0 mm 5 mps 753 mmHg 38%
    11:00 +33°C° 0 mm 5 mps 753 mmHg 32%
    12:00 +34°C° 0.1 mm 5 mps 752 mmHg 29%
    13:00 +35°C° 0.1 mm 5 mps 751 mmHg 26%
    14:00 +37°C° 0.1 mm 5 mps 751 mmHg 24%
    15:00 +38°C° 0 mm 6 mps 750 mmHg 24%
    16:00 +38°C° 0 mm 7 mps 750 mmHg 23%
    17:00 +38°C° 0 mm 7 mps 749 mmHg 23%
    18:00 +36°C° 0.1 mm 7 mps 749 mmHg 26%
    19:00 +35°C° 0.1 mm 7 mps 749 mmHg 29%
    20:00 +33°C° 0.1 mm 8 mps 749 mmHg 32%
    21:00 +32°C° 0.1 mm 7 mps 749 mmHg 35%
    22:00 +30°C° 0.1 mm 7 mps 749 mmHg 39%
    23:00 +29°C° 0.1 mm 7 mps 749 mmHg 42%

    22 January, Monday

    Time Temperature Precipitation Wind Pressure Humidity
    00:00 +29°C° 0 mm 6 mps 749 mmHg 42%
    01:00 +29°C° 0 mm 5 mps 748 mmHg 41%
    02:00 +29°C° 0 mm 4 mps 748 mmHg 41%
    03:00 +28°C° 0 mm 5 mps 748 mmHg 34%
    04:00 +28°C° 0 mm 6 mps 748 mmHg 28%
    05:00 +27°C° 0 mm 7 mps 748 mmHg 22%
    06:00 +28°C° 0 mm 7 mps 748 mmHg 21%
    07:00 +28°C° 0 mm 7 mps 749 mmHg 20%
    08:00 +28°C° 0 mm 7 mps 750 mmHg 19%
    09:00 +29°C° 0 mm 7 mps 750 mmHg 17%
    10:00 +30°C° 0 mm 7 mps 750 mmHg 15%
    11:00 +32°C° 0 mm 7 mps 750 mmHg 13%
    12:00 +32°C° 0 mm 7 mps 750 mmHg 13%
    13:00 +32°C° 0 mm 7 mps 749 mmHg 13%
    14:00 +33°C° 0 mm 8 mps 749 mmHg 13%
    15:00 +32°C° 0 mm 7 mps 749 mmHg 15%
    16:00 +30°C° 0 mm 7 mps 749 mmHg 18%
    17:00 +29°C° 0 mm 7 mps 749 mmHg 21%
    18:00 +27°C° 0 mm 7 mps 750 mmHg 25%
    19:00 +24°C° 0 mm 6 mps 750 mmHg 29%
    20:00 +23°C° 0 mm 6 mps 750 mmHg 34%
    21:00 +22°C° 0 mm 5 mps 751 mmHg 36%
    22:00 +22°C° 0 mm 4 mps 751 mmHg 39%
    23:00 +21°C° 0 mm 3 mps 752 mmHg 41%

    23 January, Tuesday

    Time Temperature Precipitation Wind Pressure Humidity
    00:00 +21°C° 0 mm 3 mps 752 mmHg 42%
    01:00 +21°C° 0 mm 2 mps 753 mmHg 43%
    02:00 +22°C° 0 mm 1 mps 753 mmHg 43%
    03:00 +20°C° 0 mm 2 mps 753 mmHg 46%
    04:00 +20°C° 0 mm 2 mps 753 mmHg 49%
    05:00 +20°C° 0 mm 2 mps 754 mmHg 51%
    06:00 +20°C° 0 mm 3 mps 754 mmHg 48%
    07:00 +21°C° 0 mm 3 mps 755 mmHg 45%
    08:00 +22°C° 0 mm 4 mps 755 mmHg 42%
    09:00 +23°C° 0 mm 4 mps 755 mmHg 37%
    10:00 +23°C° 0 mm 4 mps 755 mmHg 32%
    11:00 +25°C° 0 mm 4 mps 756 mmHg 28%
    12:00 +26°C° 0 mm 5 mps 756 mmHg 25%
    13:00 +26°C° 0 mm 5 mps 756 mmHg 23%
    14:00 +27°C° 0 mm 5 mps 756 mmHg 21%
    15:00 +26°C° 0 mm 6 mps 756 mmHg 25%
    16:00 +26°C° 0 mm 7 mps 756 mmHg 29%
    17:00 +24°C° 0 mm 8 mps 757 mmHg 33%
    18:00 +22°C° 0 mm 9 mps 757 mmHg 41%
    19:00 +19°C° 0 mm 10 mps 758 mmHg 48%
    20:00 +17°C° 0 mm 12 mps 759 mmHg 55%
    21:00 +16°C° 0 mm 11 mps 760 mmHg 58%
    22:00 +16°C° 0 mm 11 mps 761 mmHg 61%
    23:00 +14°C° 0 mm 11 mps 762 mmHg 64%

    24 January, Wednesday

    Time Temperature Precipitation Wind Pressure Humidity
    00:00 +14°C° 0 mm 10 mps 762 mmHg 65%
    01:00 +13°C° 0 mm 10 mps 762 mmHg 66%
    02:00 +13°C° 0 mm 9 mps 763 mmHg 67%
    03:00 +13°C° 0 mm 8 mps 763 mmHg 68%
    04:00 +13°C° 0 mm 8 mps 764 mmHg 68%
    05:00 +14°C° 0 mm 7 mps 765 mmHg 69%
    06:00 +14°C° 0 mm 7 mps 765 mmHg 62%
    07:00 +15°C° 0 mm 7 mps 766 mmHg 55%
    08:00 +16°C° 0 mm 6 mps 766 mmHg 48%
    09:00 +17°C° 0 mm 6 mps 767 mmHg 42%
    10:00 +19°C° 0 mm 6 mps 767 mmHg 35%
    11:00 +19°C° 0 mm 6 mps 767 mmHg 29%
    12:00 +20°C° 0 mm 6 mps 767 mmHg 28%
    13:00 +20°C° 0 mm 6 mps 767 mmHg 27%
    14:00 +21°C° 0 mm 6 mps 767 mmHg 27%
    15:00 +20°C° 0 mm 6 mps 767 mmHg 28%
    16:00 +20°C° 0 mm 6 mps 766 mmHg 29%
    17:00 +20°C° 0 mm 7 mps 766 mmHg 30%
    18:00 +18°C° 0 mm 7 mps 766 mmHg 33%
    19:00 +17°C° 0 mm 7 mps 767 mmHg 37%
    20:00 +16°C° 0 mm 7 mps 767 mmHg 41%
    21:00 +16°C° 0 mm 7 mps 767 mmHg 42%
    22:00 +16°C° 0 mm 7 mps 767 mmHg 44%
    23:00 +16°C° 0 mm 7 mps 767 mmHg 46%
    Show more